GW4718 Weather Reports


Display with metric or nautical units.
time (UTC)temp
F
wind
direction
speed
MPH
gust
MPH
rain 1hr
in
rain 24hr
in
rain mn
in
humidity
%
barometer
mb
20260831115445 62 231 0.0 2.0 0.00 0.00 0.00 99 1025.5
20260831114945 62 220 2.0 3.0 0.00 0.00 0.00 99 1025.5
20260831114443 62 226 2.0 3.0 0.00 0.00 0.00 99 1025.4
20260831113939 62 127 0.0 0.0 0.00 0.00 0.00 99 1025.7
20260831113438 61 104 0.0 0.0 0.00 0.00 0.00 99 1025.5
20260831112934 61 118 0.0 0.0 0.00 0.00 0.00 99 1025.4
20260831112434 61 84 0.0 0.0 0.00 0.00 0.00 99 1025.4
20260831111929 61 81 0.0 0.0 0.00 0.00 0.00 99 1025.5
20260831111425 61 187 0.0 0.0 0.00 0.00 0.00 99 1025.4
20260831110921 61 81 0.0 0.0 0.00 0.00 0.00 99 1025.3
20260831110415 61 27 0.0 0.0 0.00 0.00 0.00 99 1025.2
20260831105914 61 26 0.0 0.0 0.00 0.00 0.00 99 1025.2
20260831105409 61 26 0.0 0.0 0.00 0.00 0.00 99 1025.3
20260831104904 61 26 0.0 0.0 0.00 0.00 0.00 99 1025.3
20260831104400 61 26 0.0 0.0 0.00 0.00 0.00 99 1025.2
20260831103855 61 26 0.0 0.0 0.00 0.00 0.00 99 1025.1
20260831103351 61 26 0.0 0.0 0.00 0.00 0.00 99 1025.1
20260831102846 61 26 0.0 0.0 0.00 0.00 0.00 99 1025.2
20260831102341 61 26 0.0 0.0 0.00 0.00 0.00 99 1025.0
20260831101837 61 358 0.0 0.0 0.00 0.00 0.00 99 1025.0
20260831101332 62 47 0.0 0.0 0.00 0.00 0.00 99 1024.9
20260831100829 62 47 0.0 0.0 0.00 0.00 0.00 99 1024.8
20260831100324 62 47 0.0 0.0 0.00 0.00 0.00 99 1024.9
20260831095824 61 43 0.0 0.0 0.00 0.00 0.00 99 1024.9
20260831095318 62 43 0.0 0.0 0.00 0.00 0.00 99 1024.9
20260831094813 61 249 0.0 1.0 0.00 0.00 0.00 99 1025.0
20260831094308 61 187 0.0 0.0 0.00 0.00 0.00 99 1024.8
20260831093804 61 182 0.0 0.0 0.00 0.00 0.00 99 1025.0
20260831093304 61 207 0.0 0.0 0.00 0.00 0.00 99 1024.7
20260831092801 62 147 0.0 0.0 0.00 0.00 0.00 99 1024.9
20260831092256 62 147 0.0 0.0 0.00 0.00 0.00 99 1024.9
20260831091755 62 113 0.0 0.0 0.00 0.00 0.00 99 1024.7
20260831091251 62 113 0.0 0.0 0.00 0.00 0.00 99 1024.8
20260831090746 63 114 0.0 0.0 0.00 0.00 0.00 99 1024.7
20260831090242 62 114 0.0 0.0 0.00 0.00 0.00 99 1024.8
20260831085738 63 113 0.0 0.0 0.00 0.00 0.00 99 1024.7
20260831085233 63 113 0.0 0.0 0.00 0.00 0.00 99 1024.8
20260831084728 63 115 0.0 0.0 0.00 0.00 0.00 99 1024.7
20260831084224 63 116 0.0 0.0 0.00 0.00 0.00 99 1024.8
20260831083720 63 110 0.0 0.0 0.00 0.00 0.00 99 1024.7
20260831083216 63 110 0.0 0.0 0.00 0.00 0.00 99 1024.5
20260831082714 63 88 0.0 0.0 0.00 0.00 0.00 99 1024.7
20260831082204 63 91 0.0 0.0 0.00 0.00 0.00 99 1024.5
20260831081659 64 100 0.0 0.0 0.00 0.00 0.00 99 1024.4
20260831081154 64 107 0.0 0.0 0.00 0.00 0.00 99 1024.4
20260831080650 64 112 0.0 0.0 0.00 0.00 0.00 99 1024.5
20260831080150 64 341 0.0 1.0 0.00 0.00 0.00 99 1024.4
20260831075646 64 348 1.0 2.0 0.00 0.00 0.00 98 1024.3
20260831075141 64 175 0.0 4.0 0.00 0.00 0.00 98 1024.3
20260831074640 64 126 0.0 2.0 0.00 0.00 0.00 99 1024.4
20260831074135 64 229 1.0 2.0 0.00 0.00 0.00 98 1024.4
20260831073630 64 176 0.0 1.0 0.00 0.00 0.00 98 1024.3
20260831073129 64 175 1.0 2.0 0.00 0.00 0.00 99 1024.0
20260831072625 64 113 0.0 0.0 0.00 0.00 0.00 98 1024.1
20260831072122 64 109 0.0 1.0 0.00 0.00 0.00 98 1024.1
20260831071620 64 204 1.0 2.0 0.00 0.00 0.00 98 1024.2
20260831071115 64 186 1.0 2.0 0.00 0.00 0.00 98 1024.3
20260831070615 65 223 0.0 1.0 0.00 0.00 0.00 98 1024.4
20260831070109 65 229 0.0 3.0 0.00 0.00 0.00 97 1024.3
20260831065608 65 253 2.0 2.0 0.00 0.00 0.00 97 1024.2
20260831065102 65 220 2.0 4.0 0.00 0.00 0.00 97 1024.5
20260831064557 65 216 2.0 3.0 0.00 0.00 0.00 96 1024.4
20260831064052 65 160 2.0 4.0 0.00 0.00 0.00 97 1024.5
20260831063548 65 227 3.0 3.0 0.00 0.00 0.00 97 1024.5
20260831063048 65 235 0.0 2.0 0.00 0.00 0.00 97 1024.3
20260831062543 65 248 0.0 0.0 0.00 0.00 0.00 97 1024.4
20260831062042 65 289 0.0 1.0 0.00 0.00 0.00 97 1024.5
20260831061540 65 106 0.0 0.0 0.00 0.00 0.00 97 1024.3
20260831061038 66 105 0.0 0.0 0.00 0.00 0.00 97 1024.6
20260831060537 66 191 0.0 0.0 0.00 0.00 0.00 97 1024.8
20260831060028 66 172 0.0 0.0 0.00 0.00 0.00 97 1024.5
20260831055522 66 220 0.0 0.0 0.00 0.00 0.00 96 1024.8
20260831055018 66 128 0.0 0.0 0.00 0.00 0.00 96 1024.8
20260831054517 66 256 0.0 0.0 0.00 0.00 0.00 96 1024.9
20260831054016 66 105 0.0 0.0 0.00 0.00 0.00 96 1024.8
20260831053515 66 232 1.0 2.0 0.00 0.00 0.00 96 1024.9
20260831053010 66 245 1.0 3.0 0.00 0.00 0.00 95 1025.0
20260831052509 66 176 0.0 0.0 0.00 0.00 0.00 96 1024.9
20260831052008 66 132 0.0 1.0 0.00 0.00 0.00 96 1024.9
20260831051506 66 47 0.0 1.0 0.00 0.00 0.00 96 1025.0
20260831051001 66 352 0.0 0.0 0.00 0.00 0.00 96 1025.1
20260831050500 66 21 0.0 1.0 0.00 0.00 0.00 96 1025.2
20260831045959 67 337 0.0 0.0 0.00 0.00 0.00 95 1025.1
20260831045458 67 61 0.0 0.0 0.00 0.00 0.00 95 1025.1
20260831044954 67 61 0.0 0.0 0.00 0.00 0.00 94 1025.0
20260831044449 67 84 0.0 2.0 0.00 0.00 0.00 93 1024.8
20260831043945 67 227 1.0 2.0 0.00 0.00 0.00 93 1024.9
20260831043444 67 199 1.0 2.0 0.00 0.00 0.00 93 1025.2
20260831042940 67 260 2.0 3.0 0.00 0.00 0.00 93 1025.1
20260831042439 67 230 3.0 6.0 0.00 0.00 0.00 93 1025.2
20260831041939 67 278 1.0 1.0 0.00 0.00 0.00 94 1025.2
20260831041439 67 242 2.0 4.0 0.00 0.00 0.00 94 1025.1
20260831040934 67 196 0.0 0.0 0.00 0.00 0.00 94 1025.3
20260831040429 67 273 2.0 3.0 0.00 0.00 0.00 94 1025.4
20260831035926 67 175 2.0 4.0 0.00 0.01 0.01 94 1025.4
20260831035420 66 210 2.0 3.0 0.00 0.01 0.01 95 1025.2
20260831034921 65 228 3.0 4.0 0.00 0.01 0.01 96 1025.1
20260831034416 65 215 0.0 0.0 0.00 0.01 0.01 98 1025.3
20260831033911 64 289 1.0 2.0 0.00 0.01 0.01 98 1025.2
20260831033406 64 136 0.0 0.0 0.00 0.01 0.01 98 1025.2
20260831032902 65 189 0.0 0.0 0.00 0.01 0.01 98 1025.1
20260831032401 65 145 0.0 0.0 0.00 0.01 0.01 97 1025.2
20260831031857 65 137 0.0 0.0 0.00 0.01 0.01 97 1025.2
20260831031356 65 174 0.0 0.0 0.00 0.01 0.01 97 1025.1
20260831030851 65 132 0.0 0.0 0.00 0.01 0.01 97 1025.2
20260831030349 65 124 0.0 0.0 0.00 0.01 0.01 97 1025.2
20260831025843 65 116 0.0 0.0 0.00 0.01 0.01 97 1025.4
20260831025343 66 243 0.0 0.0 0.00 0.01 0.01 97 1025.2
20260831024839 66 187 0.0 0.0 0.00 0.01 0.01 96 1025.3
20260831024338 66 81 0.0 0.0 0.00 0.01 0.01 96 1025.1
20260831023837 66 83 0.0 1.0 0.00 0.01 0.01 96 1025.3
20260831023335 66 149 0.0 0.0 0.00 0.01 0.01 96 1025.2
20260831022831 66 123 0.0 0.0 0.00 0.01 0.01 96 1025.3
20260831022330 66 183 0.0 0.0 0.00 0.01 0.01 95 1025.3
20260831021825 67 203 1.0 2.0 0.00 0.01 0.01 94 1025.2
20260831021324 67 228 2.0 3.0 0.00 0.01 0.01 94 1025.2
20260831020821 67 166 0.0 1.0 0.00 0.01 0.01 95 1025.3
20260831020320 67 113 0.0 1.0 0.00 0.01 0.01 96 1025.1
20260831015816 67 113 0.0 0.0 0.00 0.01 0.01 95 1025.5
20260831015311 67 113 0.0 0.0 0.00 0.01 0.01 95 1025.4
20260831014806 67 113 0.0 1.0 0.00 0.01 0.01 94 1025.4
20260831014301 66 89 0.0 0.0 0.00 0.01 0.01 96 1025.7
20260831013757 66 16 0.0 0.0 0.00 0.01 0.01 96 1025.5
20260831013256 66 248 0.0 0.0 0.00 0.01 0.01 95 1025.5
20260831012751 66 150 0.0 0.0 0.00 0.01 0.01 95 1025.5
20260831012247 67 216 0.0 0.0 0.00 0.01 0.01 95 1025.4
20260831011746 67 72 0.0 1.0 0.00 0.01 0.01 94 1025.3
20260831011242 67 84 1.0 1.0 0.00 0.01 0.01 95 1025.3
20260831010737 67 239 0.0 1.0 0.00 0.01 0.01 93 1025.2
20260831010236 68 144 0.0 1.0 0.00 0.01 0.01 92 1025.0
20260831005732 67 129 0.0 1.0 0.00 0.01 0.01 94 1025.1
20260831005227 67 159 0.0 0.0 0.00 0.01 0.01 93 1025.1
20260831004722 67 159 0.0 0.0 0.00 0.01 0.01 93 1025.0
20260831004219 68 176 0.0 1.0 0.00 0.01 0.01 92 1024.7
20260831003714 68 257 0.0 1.0 0.00 0.01 0.01 91 1024.7
20260831003211 69 122 0.0 0.0 0.00 0.01 0.01 91 1024.5
20260831002710 69 121 0.0 0.0 0.00 0.01 0.01 90 1024.4
20260831002209 69 229 0.0 1.0 0.00 0.01 0.01 91 1024.4
20260831001706 69 120 0.0 2.0 0.00 0.01 0.01 89 1024.2
20260831001206 69 101 0.0 2.0 0.00 0.01 0.01 89 1024.2
20260831000702 70 145 2.0 2.0 0.00 0.01 0.01 90 1024.1
20260831000158 70 73 0.0 0.0 0.00 0.01 0.01 87 1023.9
20260830235656 71 87 1.0 1.0 0.00 0.01 0.01 87 1023.7
20260830235152 71 133 0.0 0.0 0.00 0.01 0.01 86 1023.7
20260830234646 72 65 0.0 1.0 0.00 0.01 0.01 85 1023.7
20260830234142 73 170 0.0 0.0 0.00 0.01 0.01 82 1023.9
20260830233637 74 191 0.0 0.0 0.00 0.01 0.01 80 1023.6
20260830233133 76 191 0.0 2.0 0.00 0.01 0.01 76 1023.9
20260830232629 76 115 2.0 3.0 0.00 0.01 0.01 68 1023.7
20260830232125 76 191 0.0 2.0 0.00 0.01 0.01 76 1023.7
20260830231621 77 110 4.0 4.0 0.00 0.01 0.01 71 1023.6
20260830231119 78 123 1.0 2.0 0.00 0.01 0.01 70 1023.6
20260830230615 79 116 2.0 3.0 0.00 0.01 0.01 66 1023.6
20260830230115 80 132 0.0 1.0 0.00 0.01 0.01 61 1023.6
20260830225610 81 125 1.0 4.0 0.00 0.01 0.01 62 1023.6
20260830225105 82 105 0.0 2.0 0.00 0.01 0.01 58 1023.6
20260830224603 83 133 0.0 1.0 0.00 0.01 0.01 59 1023.7
20260830224100 84 181 2.0 3.0 0.00 0.01 0.01 58 1023.7
20260830223557 85 113 0.0 0.0 0.00 0.01 0.01 67 1023.7
20260830223051 85 285 0.0 0.0 0.00 0.01 0.01 60 1023.6
20260830222551 83 264 2.0 2.0 0.00 0.01 0.01 62 1024.0
20260830222048 82 88 0.0 2.0 0.00 0.01 0.01 62 1024.1
20260830221543 82 306 1.0 1.0 0.00 0.01 0.01 62 1023.7
20260830221040 83 242 2.0 3.0 0.00 0.01 0.01 62 1023.9
20260830220539 84 251 0.0 3.0 0.00 0.01 0.01 61 1023.5
20260830220037 83 169 1.0 3.0 0.00 0.01 0.01 61 1024.0
20260830215531 83 258 2.0 3.0 0.00 0.01 0.01 61 1023.5
20260830215026 83 353 0.0 3.0 0.00 0.01 0.01 62 1023.5
20260830214521 86 18 1.0 3.0 0.00 0.01 0.01 57 1023.5
20260830214021 86 246 1.0 4.0 0.00 0.01 0.01 57 1023.4
20260830213516 86 129 0.0 0.0 0.00 0.01 0.01 55 1023.4
20260830213012 86 216 0.0 4.0 0.00 0.01 0.01 57 1023.4
20260830212507 87 271 1.0 2.0 0.00 0.01 0.01 52 1023.3
20260830212007 85 49 0.0 2.0 0.00 0.01 0.01 54 1023.3
20260830211502 85 228 2.0 3.0 0.00 0.01 0.01 57 1023.2
20260830210957 86 214 1.0 4.0 0.00 0.01 0.01 51 1023.1
20260830210457 85 213 1.0 3.0 0.00 0.01 0.01 54 1022.9
20260830205955 87 261 4.0 6.0 0.00 0.01 0.01 51 1023.0
20260830205454 86 161 0.0 3.0 0.00 0.01 0.01 54 1023.0
20260830204949 85 119 1.0 7.0 0.00 0.01 0.01 51 1022.8
20260830204448 86 261 2.0 6.0 0.00 0.01 0.01 53 1023.0
20260830203943 86 226 1.0 6.0 0.00 0.01 0.01 56 1023.0
20260830203440 85 175 2.0 4.0 0.00 0.01 0.01 56 1023.0
20260830202938 86 223 6.0 9.0 0.00 0.01 0.01 52 1023.2
20260830202434 87 320 2.0 4.0 0.00 0.01 0.01 51 1023.2
20260830201925 86 225 1.0 2.0 0.00 0.01 0.01 56 1023.3
20260830201423 86 56 2.0 3.0 0.00 0.01 0.01 61 1023.3
20260830200919 85 12 0.0 0.0 0.00 0.01 0.01 52 1023.3
20260830200419 84 145 2.0 3.0 0.00 0.01 0.01 55 1023.4
20260830195914 84 74 4.0 6.0 0.00 0.01 0.01 55 1023.4
20260830195414 84 84 2.0 2.0 0.00 0.01 0.01 53 1023.4
20260830194907 83 77 1.0 4.0 0.00 0.01 0.01 61 1023.6
20260830194406 82 93 2.0 4.0 0.00 0.01 0.01 59 1023.7
20260830193901 82 280 2.0 3.0 0.00 0.01 0.01 57 1024.0
20260830193400 83 212 3.0 4.0 0.00 0.01 0.01 56 1024.0
20260830192856 84 115 2.0 7.0 0.00 0.01 0.01 53 1023.9
20260830192355 85 177 1.0 6.0 0.00 0.01 0.01 54 1024.0
20260830191851 86 257 0.0 1.0 0.00 0.01 0.01 55 1024.1
20260830191351 85 210 1.0 2.0 0.00 0.01 0.01 48 1023.7
20260830190847 85 89 8.0 16.0 0.00 0.01 0.01 50 1023.9
20260830190342 87 120 3.0 4.0 0.00 0.01 0.01 50 1024.1
20260830185840 88 257 2.0 2.0 0.00 0.01 0.01 49 1023.9
20260830185336 87 251 2.0 3.0 0.00 0.01 0.01 56 1023.9
20260830184831 86 220 2.0 6.0 0.00 0.01 0.01 52 1024.1
20260830184330 87 102 5.0 7.0 0.00 0.01 0.01 49 1024.0
20260830183825 87 192 2.0 4.0 0.00 0.01 0.01 51 1024.2
20260830183324 85 216 2.0 2.0 0.00 0.01 0.01 53 1024.3
20260830182820 86 218 7.0 9.0 0.00 0.01 0.01 59 1024.6
20260830182316 85 251 2.0 3.0 0.00 0.01 0.01 55 1024.6
20260830181813 85 70 2.0 6.0 0.00 0.01 0.01 57 1024.7
20260830181308 85 13 0.0 3.0 0.00 0.01 0.01 53 1024.7
20260830180807 83 170 1.0 4.0 0.00 0.01 0.01 64 1024.8
20260830180301 84 238 3.0 4.0 0.00 0.01 0.01 65 1024.8
20260830175755 84 281 2.0 6.0 0.00 0.01 0.01 64 1025.1
20260830175250 83 136 0.0 0.0 0.00 0.01 0.01 63 1025.0
20260830174745 83 275 1.0 1.0 0.00 0.01 0.01 59 1024.9
20260830174241 82 95 4.0 4.0 0.00 0.01 0.01 65 1025.1
20260830173740 80 232 2.0 4.0 0.00 0.01 0.01 70 1025.2
20260830173235 82 235 1.0 3.0 0.00 0.01 0.01 66 1025.3
20260830172732 81 78 1.0 3.0 0.00 0.01 0.01 62 1025.1
20260830172229 81 97 2.0 3.0 0.00 0.01 0.01 63 1025.4
20260830171724 81 132 2.0 4.0 0.00 0.01 0.01 64 1025.7
20260830171219 81 209 3.0 4.0 0.00 0.01 0.01 67 1025.5
20260830170714 80 230 1.0 6.0 0.00 0.01 0.01 63 1025.4
20260830170213 81 176 2.0 2.0 0.00 0.01 0.01 65 1025.5
20260830165712 81 214 3.0 6.0 0.00 0.01 0.01 65 1025.7
20260830165208 82 187 3.0 9.0 0.00 0.01 0.01 68 1025.9
20260830164704 85 201 0.0 1.0 0.00 0.01 0.01 67 1025.7
20260830164200 83 82 0.0 1.0 0.00 0.01 0.01 68 1025.4
20260830163656 79 85 0.0 1.0 0.00 0.01 0.01 78 1025.7
20260830163156 80 53 1.0 1.0 0.00 0.01 0.01 75 1025.9
20260830162651 80 90 1.0 1.0 0.00 0.01 0.01 78 1025.8
20260830162147 79 245 0.0 1.0 0.00 0.01 0.01 73 1025.9
20260830161642 80 232 1.0 4.0 0.00 0.01 0.01 72 1025.9
20260830161137 82 172 2.0 6.0 0.00 0.01 0.01 71 1025.8
20260830160634 82 265 0.0 6.0 0.00 0.01 0.01 67 1025.8
20260830160133 83 186 4.0 7.0 0.00 0.01 0.01 71 1025.9
20260830155630 82 249 2.0 3.0 0.00 0.01 0.01 74 1026.0
20260830155125 83 243 2.0 3.0 0.00 0.01 0.01 76 1025.9
20260830154620 83 271 0.0 2.0 0.00 0.01 0.01 72 1026.0
20260830154116 81 158 0.0 3.0 0.00 0.01 0.01 79 1026.0
20260830153613 78 98 0.0 0.0 0.00 0.01 0.01 79 1025.9
20260830153112 79 86 1.0 2.0 0.00 0.01 0.01 77 1026.2
20260830152606 79 173 0.0 2.0 0.00 0.01 0.01 74 1026.0
20260830152105 79 227 4.0 6.0 0.00 0.01 0.01 75 1026.1
20260830151605 79 227 1.0 4.0 0.00 0.01 0.01 73 1025.9
20260830151100 80 260 2.0 3.0 0.00 0.01 0.01 75 1025.9
20260830150555 80 263 2.0 6.0 0.00 0.01 0.01 73 1025.9
20260830150050 80 217 3.0 6.0 0.00 0.01 0.01 74 1025.9
20260830145549 80 197 1.0 4.0 0.00 0.01 0.01 74 1026.0
20260830145044 79 299 1.0 7.0 0.00 0.01 0.01 77 1026.2
20260830144540 79 223 4.0 6.0 0.00 0.01 0.01 78 1026.0
20260830144036 79 229 1.0 3.0 0.00 0.01 0.01 80 1026.0
20260830143531 79 275 3.0 7.0 0.00 0.01 0.01 77 1026.1
20260830143029 78 205 4.0 7.0 0.00 0.01 0.01 79 1026.1
20260830142525 77 203 2.0 4.0 0.00 0.01 0.01 80 1026.1
20260830142020 77 231 4.0 4.0 0.00 0.01 0.01 80 1026.1
20260830141515 77 221 2.0 6.0 0.00 0.01 0.01 82 1026.0
20260830141015 78 230 0.0 3.0 0.00 0.01 0.01 79 1025.9
20260830140515 76 118 0.0 1.0 0.00 0.01 0.01 81 1026.0
20260830140011 77 97 2.0 3.0 0.00 0.01 0.01 85 1026.0
20260830135505 75 38 0.0 2.0 0.00 0.01 0.01 85 1026.2
20260830135000 76 72 0.0 0.0 0.00 0.01 0.01 86 1026.0
20260830134456 75 191 0.0 4.0 0.00 0.01 0.01 86 1026.2
20260830133951 75 64 1.0 2.0 0.00 0.01 0.01 85 1026.1
20260830133447 75 49 1.0 2.0 0.00 0.01 0.01 86 1026.2
20260830132942 73 108 0.0 1.0 0.00 0.01 0.01 88 1026.4
20260830132439 73 72 2.0 2.0 0.00 0.01 0.01 91 1026.2
20260830131937 73 36 0.0 0.0 0.00 0.01 0.01 90 1026.3
20260830131431 71 62 0.0 0.0 0.00 0.01 0.01 92 1026.6
20260830130926 71 47 0.0 2.0 0.00 0.01 0.01 93 1026.2
20260830130422 69 80 0.0 0.0 0.00 0.01 0.01 98 1026.6
20260830125921 68 53 0.0 2.0 0.00 0.01 0.01 99 1026.7
20260830125417 67 12 0.0 0.0 0.00 0.01 0.01 99 1026.7
20260830124914 66 73 0.0 0.0 0.00 0.01 0.01 99 1026.8
20260830124409 66 58 0.0 0.0 0.00 0.01 0.01 99 1026.8
20260830123906 65 49 0.0 0.0 0.00 0.01 0.01 99 1026.8
20260830123402 65 65 0.0 0.0 0.00 0.01 0.01 99 1026.8
20260830122859 64 75 0.0 0.0 0.00 0.01 0.01 99 1026.7
20260830122354 64 43 0.0 0.0 0.00 0.01 0.01 99 1026.7
20260830121850 64 54 0.0 0.0 0.00 0.01 0.01 99 1026.7
20260830121349 63 47 0.0 0.0 0.00 0.01 0.01 99 1026.9
20260830120845 62 56 0.0 0.0 0.00 0.01 0.01 99 1026.7
20260830120340 62 42 0.0 0.0 0.00 0.01 0.01 99 1026.7
20260830115836 62 42 0.0 0.0 0.00 0.01 0.01 99 1026.7